Location: Springfield
(37.2150°N, 93.2980°W)
Time: 00:47:55
(UTC-06:00)

Daily predictions for brighter satellites

Satellite Brightness Start Highest point End
(mag) Time Altitude Azimuth Time Altitude Azimuth Time Altitude Azimuth
USA 215 4.5 03:33:11 10° ENE 03:37:30 36° E 03:37:30 36° E
CENTAUR R/B 3.6 03:57:18 40° ENE 03:57:18 40° ENE 04:01:57 10° NE
Cosmos 1709 Rocket 4.2 04:17:11 10° S 04:23:34 66° ENE 04:29:23 10° NNE
Cosmos 2278 Rocket 2.9 04:27:06 48° SE 04:27:06 48° SE 04:31:10 10° SSE
DELTA 2 R/B (1) 4.1 04:30:38 57° E 04:30:38 57° E 04:35:01 10° ESE
SL-16 R/B 2.9 04:27:56 28° SSE 04:30:39 51° ESE 04:36:08 10° NNE
Cosmos 923 Rocket 4.1 04:45:49 64° SSE 04:46:32 76° ESE 04:51:51 10° NNE
Feng Yun 1-1 Rocket 4.1 04:55:36 10° N 05:01:14 76° WNW 05:06:41 10° SSW
Cosmos 2237 Rocket 3.8 05:05:58 20° N 05:05:58 20° N 05:07:51 10° N
Gbstr 26 Del rocket 3.2 05:12:20 54° NNW 05:13:09 66° NE 05:17:16 10° ESE
COSMO-SKYMED 1 3.3 05:10:03 10° SSE 05:14:15 51° ENE 05:18:10 12° N
Cosmos 1680 Rocket 3.3 05:10:21 10° SSW 05:15:34 76° WNW 05:20:48 10° NNE
GPS 2-05 Rocket1 3.1 05:19:02 64° SSE 05:19:02 64° SSE 05:22:31 10° E
USA 215 3.4 05:16:08 10° NE 05:22:22 50° NW 05:24:53 34° W
Cosmos 921 Rocket 4.0 05:19:07 13° N 05:22:56 48° ENE 05:27:17 10° SE
Cosmos 292 Rocket 3.6 05:21:35 10° SSW 05:26:24 70° WNW 05:31:14 10° NNE
Cosmos 1603 4.4 05:22:22 10° S 05:27:56 57° ESE 05:33:29 10° NNE
Cosmos 2074 Rocket 3.9 05:24:11 10° S 05:30:28 81° W 05:36:46 10° N
SJ-6F 4.4 05:28:56 10° N 05:32:55 56° WNW 05:36:54 10° SSW
NOAA 6 3.9 05:28:42 10° N 05:33:46 63° WNW 05:38:48 10° SSW
Cosmos 2112 Rocket 3.9 05:28:57 10° SSW 05:34:06 60° WNW 05:39:16 10° N
Cosmos 2369 Rocket 4.4 05:30:04 10° N 05:34:16 21° NE 05:38:28 10° ESE
Meteor 1-20 Rocket 4.1 05:29:44 10° SSW 05:35:20 75° W 05:40:53 10° N
Cosmos 1300 Rocket 3.9 05:38:23 10° S 05:42:46 67° E 05:47:10 10° NNE
Cosmos 2184 Rocket 3.9 05:36:59 10° SSW 05:43:04 67° W 05:49:14 10° N
SKYMED 3 4.5 05:39:55 10° S 05:44:14 71° WSW 05:48:33 10° NNW
CENTAUR R/B 3.3 05:44:33 25° WNW 05:46:32 30° NW 05:52:29 10° NNE
Cosmos 2333 Rocket 4.2 05:50:16 11° NNW 05:50:16 11° NNW 05:50:33 10° NNW
Cosmos 2297 4.1 05:48:49 21° NW 05:52:02 40° WSW 05:57:16 10° S
Okean 1 3.2 05:48:41 10° NNW 05:52:42 66° W 05:56:41 10° S
Cosmos 2154 Rocket 4.1 05:51:58 10° S 05:58:12 82° E 06:04:25 10° N
Meteor 1-11 Rocket 4.1 05:53:12 10° S 05:59:04 74° E 06:04:51 10° NNE
CZ-2C R/B 4.2 05:55:38 10° NNE 06:00:25 37° E 06:05:06 10° SSE
Cosmos 2151 Rocket 4.3 05:57:04 10° SW 06:01:07 32° WNW 06:05:10 10° NNW
SKYMED 2 3.9 05:58:12 10° S 06:02:19 42° W 06:06:27 10° NNW
Cosmos 1238 Rocket 4.0 05:59:41 11° NNW 06:03:44 36° W 06:08:49 10° SSW
Tiangong 2 2.0 06:04:56 23° NW 06:06:10 32° N 06:09:04 10° ENE
Cosmos 2278 Rocket 4.0 06:09:01 12° W 06:09:01 12° W 06:10:54 10° WSW
Cosmos 1602 3.7 06:09:00 10° SSW 06:12:54 63° W 06:16:50 10° N
Meteor 2-13 Rocket 4.4 06:07:39 10° S 06:13:47 79° W 06:20:00 10° N
PAYLOAD A 4.3 06:08:55 10° NNE 06:14:17 78° ESE 06:19:43 10° S
YAOGAN 3 4.5 06:10:00 10° N 06:14:21 74° WNW 06:18:41 10° SSW
Cosmos 1346 Rocket 3.1 06:11:03 10° NNW 06:14:45 42° W 06:18:27 10° SSW
Meteor 1-13 Rocket 4.3 06:08:54 10° N 06:14:52 80° W 06:20:47 10° S
SL-16 R/B 3.3 06:10:47 10° WSW 06:15:04 22° NW 06:19:22 10° N
CZ-4 R/B 1.7 06:11:37 10° NNE 06:15:35 67° ESE 06:19:26 10° S
DELTA 2 R/B (1) 4.3 06:11:25 15° W 06:15:42 42° SSW 06:20:54 10° SE
Cosmos 1812 4.0 06:15:05 14° NW 06:17:06 21° W 06:20:01 10° SW
Cosmos 2056 Rocket 3.4 06:13:46 10° NNW 06:18:56 81° WSW 06:24:02 10° SSE
PSLV R/B 3.8 06:19:55 15° WNW 06:22:33 47° N 06:25:48 10° E
Lacrosse 5 1.9 06:19:32 10° SW 06:24:38 90° SSE 06:29:46 10° NE
Cosmos 44 4.3 06:19:38 10° SSW 06:24:53 57° ESE 06:30:03 10° NE
IDEFIX/ARIANE 42P 3.2 06:20:28 10° NNE 06:25:38 63° ESE 06:30:46 10° S
SMAP 3.6 06:22:09 10° NNE 06:26:47 66° ESE 06:31:24 10° S
Cosmos 1943 Rocket 4.0 06:27:25 10° N 06:32:02 27° ENE 06:36:38 10° ESE
Meteor 1-29 4.1 06:29:25 10° SSE 06:32:38 43° ENE 06:35:52 10° N
Meteor 1-23 Rocket 4.5 06:27:29 10° N 06:33:03 73° E 06:38:35 10° SSE
Cosmos 1624 Rocket 4.2 06:28:03 10° NNW 06:33:12 54° WSW 06:38:21 10° S
Cosmos 1536 2.8 06:30:38 10° SSW 06:34:33 59° W 06:38:30 10° N
YAOGAN 1 2.7 06:32:25 10° NNE 06:36:47 80° ESE 06:41:06 10° S
SL-8 Rocket 4.3 06:31:25 10° S 06:37:40 77° E 06:43:55 10° N
Ariane Rocket 3.8 06:33:55 10° N 06:38:10 28° WNW 06:42:25 10° SW
IRS-1A Rocket 4.4 06:32:42 10° N 06:38:16 59° WNW 06:43:56 10° SSW
Helios 1B rocket 2.6 06:34:42 10° SSE 06:38:50 79° ENE 06:43:00 10° N
Meteor 1-28 Rocket 4.4 06:40:00 10° SSW 06:43:02 23° W 06:46:06 10° NW
GRACE-2 3.8 06:41:06 10° N 06:43:52 65° W 06:46:37 10° S
GRACE-1 3.8 06:41:32 10° N 06:44:17 62° W 06:47:02 10° S
Cosmos 2218 Rocket 4.3 06:42:09 10° S 06:48:31 78° E 06:54:56 10° N
